sat.trackr.live / text

‹ back to catalog

ONEWEB-0110

NORAD 47260 · 2020-100C

PAYLOAD ACTIVE UNKNOWN

§ Identity

Operator
Country
UK
Launch date
2020-12-18
Launch site
VOSTO
Launch vehicle
Mass (kg)
RCS (m²)

Purposes: comms

External: N2YO · Heavens-Above · Gunter

§ Orbital elements

Epoch: 2026-05-25T03:30:06.962688Z

Period
109.72 min
Inclination
87.8959°
Eccentricity
0.0001716
Mean motion
13.12442449 rev/d
Perigee alt
1,212.4 km
Apogee alt
1,215.0 km
Semi-major
7,591.9 km
B*
-1.1510e-3
RAAN
355.2246°
Arg perigee
77.8972°
Mean anomaly
282.2349°
Rev number
26,170

§ Raw data

ONEWEB-01101 47260U 20100C   26145.14591392 -.00000401  00000+0 -11510-2 0  99902 47260  87.8959 355.2246 0001716  77.8972 282.2349 13.12442449261709

JSON: /api/v1/satellites/47260 · /tle

For live sub-satellite position, see the globe view (requires WebGL).

§ Visibility from observer

Set your observer location to see the next 7 days of passes ≥ 10°. The values pass through the URL so the page stays shareable.

No JS? Fill the form by hand. The geolocation button needs JavaScript.